Zurück zum Katalog

STARLINK-34260

AktivKommunikationVLEO
NORAD 64334·PAYLOAD·🇺🇸 United States

Gestartet Jun 10, 2025 von Cape Canaveral Space Force Station

Loading…

Nächste Überflüge (nächste 24 Stunden)

TLE

AktuellSource: CelesTrak SupGP

Epoche: Sep 15, 2026, 02:21 UTC

1 64334C 25124T   26258.09840278  .00059647  00000+0  21604-2 0  2588
2 64334  42.9995 132.2582 0001326 272.4282 150.6716 15.27549503    10

Verfolge STARLINK-34260 in Echtzeit mit AllMySat

Download on the App Store